Theta_e
314 313 316 315 317 319 320 321 321 321 321 322 322 323 323 322 322 322 321 322 321 320 321 321 321 321 321 342 351 350 348 343 343 348 347 351 351 350 352 350 352 351 351 351
319 315 314 317 317 317 318 318 318 319 320 320 321 322 323 323 323 323 321 322 322 321 320 320 321 321 321 330 354 351 350 346 335 340 351 346 351 349 351 350 350 353 352 352
318 319 320 317 316 317 317 316 317 318 319 319 319 320 320 323 324 323 322 322 322 322 321 321 321 321 321 335 356 353 352 350 352 353 354 346 346 348 351 351 352 352 352 352
314 317 319 319 319 317 318 318 318 317 317 319 318 320 319 323 324 324 322 322 322 322 322 321 321 321 321 325 352 355 353 354 354 354 354 355 349 355 353 354 354 353 351 353
318 317 320 321 320 320 320 321 321 322 321 318 317 318 319 323 324 324 322 322 322 323 322 322 322 321 321 325 328 351 357 356 355 356 355 355 354 352 357 357 355 356 353 353
317 315 318 318 318 319 321 321 322 322 321 324 317 317 318 320 322 323 324 323 323 323 322 321 321 320 324 325 327 329 349 355 357 355 353 355 350 354 354 356 357 355 354 353
316 316 316 318 317 317 317 318 325 325 324 324 318 317 318 320 323 324 323 323 323 323 322 321 322 321 322 328 328 332 339 338 352 354 351 351 348 350 352 352 353 353 344 343
316 317 316 316 316 318 317 317 320 324 322 322 320 319 318 319 320 323 324 324 324 323 325 322 322 323 322 329 330 330 332 343 344 349 350 352 351 352 350 341 341 338 345 348
319 319 316 317 318 318 320 320 319 321 322 325 323 320 318 319 320 320 320 321 320 322 324 324 323 323 323 327 329 327 325 324 325 327 336 347 350 348 350 347 344 347 347 345
316 318 315 317 318 318 319 320 323 317 323 322 322 322 320 325 326 321 320 319 320 321 324 324 324 323 323 324 327 326 325 324 325 330 348 350 349 348 350 345 349 347 345 344
315 316 315 315 320 320 319 321 321 320 322 322 320 319 324 327 325 326 327 319 321 326 324 324 324 323 323 324 324 327 327 329 337 343 351 350 348 348 347 348 346 345 343 340
314 314 315 316 315 318 319 321 321 320 321 322 321 322 325 326 325 325 331 324 344 343 337 333 328 324 325 325 335 340 338 332 342 344 350 349 347 346 346 346 341 338 334 330
314 315 313 314 320 316 316 315 321 321 323 323 322 325 322 326 326 326 335 341 343 344 343 339 336 337 342 346 347 343 340 344 346 346 345 344 345 343 341 337 334 332 331 328
313 313 314 314 316 315 317 317 318 319 322 322 323 322 323 322 326 327 329 337 342 343 344 343 342 343 343 346 344 343 345 343 343 344 343 341 338 334 331 330 327 324 321 320
313 309 313 314 314 313 314 315 316 317 318 323 324 325 326 325 328 324 326 333 336 341 340 341 341 340 340 340 341 340 340 340 341 340 339 334 327 326 324 323 321 319 318 317
313 315 313 313 313 315 316 316 316 318 319 320 323 326 325 326 327 328 329 333 336 340 341 340 340 338 335 335 333 331 332 331 334 334 330 326 324 321 319 317 316 315 313 310
309 311 311 310 314 314 317 320 320 319 318 319 326 324 323 326 328 329 330 329 326 332 335 335 334 331 331 329 328 327 326 326 327 324 321 318 316 316 315 313 311 309 307 304
310 310 314 313 312 316 323 320 321 319 319 321 326 324 323 326 324 326 326 324 323 326 325 325 326 324 324 323 322 322 322 319 318 316 316 315 315 314 312 309 305 304 304 305
311 313 315 314 315 317 320 319 320 324 325 325 325 327 325 321 321 321 322 321 321 320 319 318 320 320 321 320 319 318 317 316 315 314 314 313 311 309 305 303 304 305 306 307
314 312 314 315 316 320 318 315 316 321 330 324 326 326 324 324 322 320 319 318 318 320 320 319 316 318 319 317 317 316 315 314 312 311 309 306 304 303 303 304 305 308 309 309
315 312 314 315 316 318 312 313 318 328 327 321 325 325 324 322 318 316 316 316 316 316 315 316 316 314 313 313 314 311 309 308 307 305 303 303 304 304 305 306 307 308 309 309
316 317 317 317 320 320 309 313 320 316 312 320 325 324 316 315 315 315 315 315 313 314 314 313 313 311 311 310 309 307 306 305 304 303 303 305 305 306 305 307 308 306 306 305
316 314 314 312 312 308 309 310 309 312 324 325 323 317 315 314 313 314 314 314 312 312 311 310 310 309 309 308 307 305 303 303 303 304 304 305 305 305 305 305 305 305 305 304
313 310 313 311 310 309 308 308 309 312 319 321 323 317 316 314 313 312 312 312 311 311 310 310 310 309 310 309 308 305 303 303 303 305 306 306 304 305 305 305 305 305 304 304
309 311 311 310 308 309 308 308 308 310 312 316 317 315 314 313 313 312 312 312 311 311 311 311 312 312 311 311 310 307 306 304 303 303 304 304 304 304 304 304 304 304 304 304
308 310 311 309 310 309 309 309 308 308 308 311 311 311 312 312 312 312 312 311 310 310 309 308 307 307 305 303 302 301 301 301 303 304 304 303 303 302 302 303 303 303 304 304
Wind_Speed
19 8 16 10 15 19 17 18 20 20 16 22 18 22 20 19 28 22 25 28 26 37 32 34 30 32 30 28 47 51 41 29 33 36 33 36 34 31 28 29 23 23 21 20
12 20 17 14 18 20 22 23 23 21 19 16 16 26 20 18 20 33 28 29 31 32 38 38 40 37 41 36 41 48 48 45 33 37 41 50 40 36 33 29 29 23 23 22
16 21 16 21 22 22 20 19 17 20 18 21 17 20 14 11 24 34 35 38 35 39 43 46 44 39 42 38 38 41 47 43 37 38 37 42 42 35 29 29 30 28 25 24
17 19 22 20 17 23 21 19 21 19 14 13 10 14 16 7 15 16 32 34 36 40 30 46 48 45 36 45 37 47 40 39 42 41 36 33 38 32 31 29 26 27 25 25
15 23 26 10 14 19 16 13 11 14 14 14 16 10 10 6 18 14 20 26 38 41 40 32 35 35 43 44 47 43 43 41 39 38 36 35 34 33 28 27 30 29 31 27
16 31 21 14 18 21 16 7 9 11 11 11 15 13 15 13 17 17 14 21 37 41 40 39 40 39 24 46 49 47 46 43 42 40 36 36 32 29 30 26 29 27 23 22
13 21 28 10 8 18 22 9 5 3 4 10 14 15 13 10 15 18 16 26 33 36 42 45 43 41 28 47 54 51 48 44 44 40 35 33 31 35 32 28 28 23 21 18
8 14 11 4 12 8 3 8 8 6 5 10 16 16 13 20 18 23 29 32 42 38 39 49 49 42 33 40 49 50 46 43 41 38 38 34 29 34 27 23 18 20 17 16
6 6 10 12 4 3 4 5 6 5 6 4 4 22 16 21 21 19 21 31 31 24 44 45 52 41 38 36 48 50 48 40 42 41 36 36 31 26 23 23 22 21 20 20
4 6 9 4 4 15 10 3 5 3 5 4 7 10 10 1 8 15 23 22 33 39 45 46 45 45 42 37 43 49 46 43 41 36 33 32 30 26 28 27 24 21 20 17
2 4 4 5 4 4 3 4 5 3 3 4 8 10 6 4 5 12 22 29 22 17 34 44 48 46 43 40 38 50 48 42 36 34 32 34 33 32 28 26 24 21 19 15
2 1 4 6 11 2 3 4 5 4 6 6 5 7 3 7 6 15 21 21 24 21 21 20 28 41 43 44 44 46 45 41 37 35 37 38 34 32 32 28 25 22 22 19
3 3 4 7 7 10 2 8 5 9 1 13 7 4 14 15 11 21 8 23 28 32 29 24 23 34 40 45 48 50 48 45 40 37 36 34 34 33 31 30 28 25 21 18
5 4 4 3 10 9 10 11 4 3 5 3 9 12 8 17 17 16 12 19 23 29 34 32 32 36 40 44 49 49 46 43 40 37 36 34 33 34 33 30 26 23 20 15
5 3 4 9 14 17 17 18 17 6 7 5 4 6 5 8 14 9 10 10 10 23 22 35 35 32 40 47 45 46 45 44 42 41 38 36 35 32 30 27 23 18 14 11
2 3 7 8 14 9 16 18 18 20 16 15 13 4 5 3 7 4 8 8 5 11 20 27 41 41 44 52 50 49 47 44 44 42 39 35 31 28 26 22 18 14 10 5
11 5 4 4 9 17 10 9 17 18 15 14 7 7 6 3 6 3 14 19 23 17 18 22 30 37 52 53 52 50 47 42 41 39 35 31 28 25 21 16 12 8 5 2
8 6 2 5 8 3 6 18 5 12 13 10 12 15 10 12 21 19 22 33 32 32 26 24 41 43 48 50 52 48 44 41 39 36 32 29 24 19 15 11 7 4 3 2
16 6 2 3 3 9 6 12 9 8 5 9 11 12 16 32 37 15 27 33 39 42 37 24 54 50 57 49 50 48 44 42 37 33 28 22 18 15 11 8 6 6 4 4
10 8 2 2 2 4 4 22 23 13 4 12 16 13 16 18 11 4 25 36 36 39 36 31 47 47 48 42 42 43 41 37 30 25 20 15 12 9 8 7 7 8 6 5
3 2 4 6 3 5 11 25 19 4 1 13 10 26 20 11 13 22 37 37 38 40 41 46 45 46 44 41 40 36 31 27 22 18 15 12 10 8 7 7 7 7 8 9
0 3 1 3 2 4 25 13 6 9 23 15 4 17 38 38 31 33 38 38 37 41 41 41 42 39 34 32 32 31 26 20 16 14 15 11 7 7 5 10 13 14 14 15
2 4 2 3 3 8 17 11 19 23 9 16 11 31 39 37 37 36 38 36 38 38 39 39 40 37 31 28 26 26 20 15 15 12 10 9 8 10 13 13 16 17 16 14
2 7 2 2 5 11 16 19 23 20 24 31 28 32 40 36 38 38 39 40 38 36 35 33 33 31 27 23 20 19 15 11 9 9 8 7 5 7 10 11 11 13 14 15
4 5 3 2 4 3 21 20 20 29 33 34 31 35 38 39 36 38 38 37 34 30 26 25 25 23 20 16 13 11 8 5 4 2 2 2 6 8 8 10 11 11 11 8
7 4 3 3 6 15 17 24 27 39 34 34 38 36 34 43 41 41 39 32 30 28 23 21 17 14 11 9 9 7 6 6 6 7 7 5 8 7 10 11 13 12 9 8
Wind_Direction
206 218 229 217 229 243 263 265 254 253 242 243 248 254 243 222 219 233 231 230 238 235 238 242 240 235 238 212 196 199 201 213 202 204 212 207 208 206 209 212 214 231 238 240
254 233 234 235 246 240 235 245 258 272 273 278 268 253 249 234 223 216 218 221 233 239 235 236 238 234 228 224 201 199 207 204 203 207 212 213 210 208 211 212 214 220 236 244
246 260 243 225 241 248 242 246 249 245 254 268 266 274 272 264 229 211 212 213 223 226 234 234 225 223 225 215 195 198 189 208 208 197 206 209 215 218 218 219 217 218 227 238
246 262 252 266 267 236 247 238 249 262 260 247 251 262 262 249 278 246 205 201 215 222 239 220 218 224 228 217 196 189 190 196 204 206 209 205 204 204 212 218 218 216 225 229
299 304 300 282 282 302 281 291 332 309 293 293 249 254 264 252 233 262 197 206 214 221 227 218 211 221 233 219 209 201 194 197 205 211 214 212 210 208 207 212 214 220 220 224
215 257 259 240 244 260 269 271 313 325 297 273 251 234 251 243 247 268 252 224 209 220 218 217 224 228 243 217 208 206 202 203 203 206 209 211 204 207 208 201 205 211 216 225
297 274 275 231 268 277 279 215 210 285 268 259 256 240 228 220 225 215 238 232 230 218 214 214 217 216 228 211 203 200 200 205 208 205 209 208 204 214 216 215 221 229 233 224
277 290 249 267 255 290 232 325 232 212 222 264 259 260 234 246 244 239 238 238 236 227 213 203 207 215 215 209 200 197 198 200 206 205 205 203 208 216 218 216 201 203 198 195
298 253 324 296 243 338 307 255 297 179 194 258 277 270 240 232 236 237 255 257 263 253 216 203 205 207 209 205 200 197 196 201 205 207 210 201 205 204 192 188 188 183 181 191
247 282 255 314 14 184 200 151 313 4 182 226 235 270 247 290 318 266 240 249 253 263 208 199 202 205 212 207 201 198 197 201 199 196 195 189 187 181 184 189 184 185 186 191
271 260 289 295 208 181 162 151 180 192 161 204 261 253 190 261 313 317 294 235 239 208 184 193 199 204 204 209 203 195 191 188 178 177 181 186 186 189 185 180 182 175 172 173
132 249 277 265 257 52 164 323 204 179 184 208 245 270 353 295 347 315 274 238 115 100 137 149 180 196 195 189 170 165 168 173 172 175 173 170 170 175 174 173 162 157 150 148
341 244 308 333 39 43 354 285 302 255 295 235 244 262 348 336 352 311 339 100 95 96 101 114 131 143 148 141 145 157 162 165 164 168 173 164 162 167 159 157 157 158 158 158
259 259 238 272 307 292 280 287 255 188 238 288 258 286 2 337 315 278 359 58 106 103 111 111 121 133 142 138 143 154 153 155 162 165 164 162 156 154 155 157 155 155 154 154
173 236 277 298 297 289 286 283 288 211 244 251 270 276 135 246 277 274 0 3 120 101 125 127 124 134 132 129 141 139 142 148 155 156 153 150 151 152 150 150 150 151 154 158
208 283 311 290 290 317 305 274 254 247 205 220 251 257 180 259 328 296 269 281 96 136 121 134 136 134 126 125 125 126 132 135 145 144 146 147 147 147 146 147 146 150 151 159
288 282 356 259 333 311 278 299 228 217 215 199 200 185 176 101 286 51 77 86 71 87 119 125 128 133 121 121 124 124 128 134 134 134 134 137 140 142 143 143 146 147 147 153
249 271 214 284 304 267 335 332 320 196 226 186 130 167 178 103 64 86 102 95 82 93 90 97 108 93 111 113 114 116 121 121 119 123 131 135 140 141 140 140 139 128 129 190
215 215 265 273 300 288 356 353 351 360 292 140 125 125 115 98 79 49 101 105 98 98 86 78 110 113 106 113 118 122 126 124 130 134 139 144 146 143 143 141 133 140 161 149
71 107 164 323 301 303 353 328 324 317 94 114 128 129 131 131 102 80 93 104 103 116 133 117 101 113 117 117 123 126 126 132 132 136 136 140 136 139 144 135 135 147 155 133
121 168 216 232 245 240 349 329 326 53 15 302 198 143 151 112 112 120 109 100 108 111 113 121 120 117 119 129 132 122 123 121 124 121 122 126 117 120 127 135 143 163 145 137
329 268 240 275 322 360 348 350 25 307 299 312 192 132 107 114 119 116 112 114 108 113 114 114 112 112 117 121 123 115 112 114 111 110 121 128 118 107 139 138 128 115 106 97
40 355 15 18 354 306 327 330 324 326 79 129 167 121 124 124 122 120 117 123 121 119 117 117 116 114 111 111 112 107 102 103 98 106 110 117 125 130 122 122 136 129 116 117
48 18 39 235 353 347 4 13 15 46 78 120 135 133 128 124 123 119 118 118 122 124 121 121 118 115 112 109 105 101 100 84 84 95 124 134 130 135 148 149 140 142 144 149
318 337 15 50 314 356 27 35 36 62 77 103 116 126 123 122 117 119 120 122 121 117 113 114 113 111 108 105 105 109 125 135 118 160 155 151 124 143 150 142 135 143 145 136
352 343 26 22 60 66 46 53 64 74 71 87 97 105 112 123 120 123 117 112 112 112 110 102 99 111 115 137 144 147 162 171 167 156 176 148 127 122 126 115 117 120 125 135